When you browse on this site, cookies collect data to enhance your experience and personalize the content and advertising you see.
Visit our Privacy Policy to learn more. By continuing to use the site, you agree to this use of cookies and data.

Tiempo cada hora Volokovaya

Hoy, 13 Julio, Lunes

Tiempo Temperatura Precipitaciones Viento Presión Humedad
00:00 +12°C° 0 mm 3 mps 745 mmHg 86%
01:00 +12°C° 0 mm 3 mps 745 mmHg 88%
02:00 +13°C° 0 mm 2 mps 745 mmHg 91%
03:00 +12°C° 0.5 mm 3 mps 745 mmHg 93%
04:00 +12°C° 0.5 mm 3 mps 744 mmHg 94%
05:00 +11°C° 0.5 mm 3 mps 744 mmHg 95%
06:00 +11°C° 0.3 mm 3 mps 744 mmHg 94%
07:00 +12°C° 0.3 mm 3 mps 744 mmHg 94%
08:00 +13°C° 0.3 mm 2 mps 744 mmHg 94%
09:00 +12°C° 0.4 mm 3 mps 744 mmHg 94%
10:00 +12°C° 0.4 mm 3 mps 744 mmHg 94%
11:00 +12°C° 0.4 mm 3 mps 744 mmHg 94%
12:00 +12°C° 0.6 mm 3 mps 744 mmHg 93%
13:00 +12°C° 0.6 mm 3 mps 744 mmHg 93%
14:00 +12°C° 0.6 mm 3 mps 744 mmHg 92%
15:00 +13°C° 0.4 mm 3 mps 743 mmHg 91%
16:00 +13°C° 0.4 mm 3 mps 743 mmHg 90%
17:00 +14°C° 0.4 mm 2 mps 743 mmHg 89%
18:00 +14°C° 0 mm 2 mps 743 mmHg 91%
19:00 +13°C° 0 mm 2 mps 743 mmHg 92%
20:00 +13°C° 0 mm 1 mps 743 mmHg 94%
21:00 +13°C° 0 mm 1 mps 743 mmHg 94%
22:00 +12°C° 0 mm 1 mps 742 mmHg 94%
23:00 +12°C° 0 mm 2 mps 742 mmHg 95%

Mañana, 14 Julio, Martes

Tiempo Temperatura Precipitaciones Viento Presión Humedad
00:00 +12°C° 0 mm 2 mps 742 mmHg 95%
01:00 +12°C° 0 mm 2 mps 742 mmHg 95%
02:00 +10°C° 0 mm 3 mps 742 mmHg 95%
03:00 +10°C° 0 mm 3 mps 742 mmHg 93%
04:00 +10°C° 0 mm 3 mps 742 mmHg 92%
05:00 +10°C° 0 mm 3 mps 742 mmHg 90%
06:00 +12°C° 0 mm 4 mps 742 mmHg 87%
07:00 +13°C° 0 mm 4 mps 742 mmHg 83%
08:00 +15°C° 0 mm 5 mps 742 mmHg 79%
09:00 +16°C° 0 mm 5 mps 742 mmHg 74%
10:00 +17°C° 0 mm 5 mps 742 mmHg 70%
11:00 +19°C° 0 mm 5 mps 742 mmHg 65%
12:00 +20°C° 0 mm 5 mps 742 mmHg 64%
13:00 +20°C° 0 mm 5 mps 742 mmHg 62%
14:00 +21°C° 0 mm 5 mps 742 mmHg 61%
15:00 +21°C° 0.1 mm 5 mps 741 mmHg 65%
16:00 +20°C° 0.1 mm 5 mps 741 mmHg 69%
17:00 +20°C° 0.1 mm 4 mps 741 mmHg 73%
18:00 +18°C° 0 mm 4 mps 741 mmHg 74%
19:00 +17°C° 0 mm 4 mps 740 mmHg 75%
20:00 +15°C° 0 mm 4 mps 740 mmHg 76%
21:00 +15°C° 0 mm 4 mps 740 mmHg 74%
22:00 +14°C° 0 mm 4 mps 740 mmHg 71%
23:00 +14°C° 0 mm 4 mps 740 mmHg 68%

Pasado mañana, 15 Julio, Miércoles

Tiempo Temperatura Precipitaciones Viento Presión Humedad
00:00 +14°C° 0 mm 4 mps 740 mmHg 70%
01:00 +13°C° 0 mm 4 mps 740 mmHg 71%
02:00 +13°C° 0 mm 4 mps 740 mmHg 72%
03:00 +13°C° 0 mm 4 mps 740 mmHg 74%
04:00 +12°C° 0 mm 4 mps 740 mmHg 76%
05:00 +12°C° 0 mm 4 mps 740 mmHg 77%
06:00 +13°C° 0 mm 5 mps 740 mmHg 76%
07:00 +13°C° 0 mm 5 mps 741 mmHg 75%
08:00 +14°C° 0 mm 5 mps 741 mmHg 74%
09:00 +15°C° 0 mm 5 mps 741 mmHg 71%
10:00 +16°C° 0 mm 6 mps 741 mmHg 68%
11:00 +17°C° 0 mm 6 mps 741 mmHg 64%
12:00 +17°C° 0.1 mm 6 mps 741 mmHg 65%
13:00 +17°C° 0.1 mm 5 mps 741 mmHg 66%
14:00 +19°C° 0.1 mm 5 mps 742 mmHg 67%
15:00 +18°C° 0.1 mm 4 mps 742 mmHg 70%
16:00 +18°C° 0.1 mm 3 mps 742 mmHg 73%
17:00 +18°C° 0.1 mm 2 mps 742 mmHg 76%
18:00 +16°C° 0 mm 2 mps 742 mmHg 79%
19:00 +15°C° 0 mm 1 mps 742 mmHg 81%
20:00 +13°C° 0 mm 0 mps 742 mmHg 84%
21:00 +13°C° 0 mm 1 mps 742 mmHg 83%
22:00 +13°C° 0 mm 2 mps 742 mmHg 83%
23:00 +12°C° 0 mm 3 mps 742 mmHg 82%

16 Julio, Jueves

Tiempo Temperatura Precipitaciones Viento Presión Humedad
00:00 +12°C° 0 mm 3 mps 742 mmHg 83%
01:00 +12°C° 0 mm 3 mps 742 mmHg 84%
02:00 +12°C° 0 mm 3 mps 742 mmHg 85%
03:00 +12°C° 0 mm 3 mps 742 mmHg 86%
04:00 +11°C° 0 mm 3 mps 742 mmHg 88%
05:00 +11°C° 0 mm 3 mps 742 mmHg 89%
06:00 +13°C° 0 mm 3 mps 742 mmHg 83%
07:00 +16°C° 0 mm 3 mps 742 mmHg 78%
08:00 +17°C° 0 mm 3 mps 742 mmHg 72%
09:00 +18°C° 0 mm 3 mps 742 mmHg 68%
10:00 +20°C° 0 mm 4 mps 742 mmHg 65%
11:00 +21°C° 0 mm 4 mps 742 mmHg 61%
12:00 +21°C° 0 mm 4 mps 742 mmHg 60%
13:00 +22°C° 0 mm 4 mps 742 mmHg 59%
14:00 +22°C° 0 mm 4 mps 742 mmHg 58%
15:00 +22°C° 0 mm 3 mps 742 mmHg 61%
16:00 +22°C° 0 mm 3 mps 742 mmHg 64%
17:00 +22°C° 0 mm 3 mps 742 mmHg 67%
18:00 +20°C° 0 mm 3 mps 742 mmHg 71%
19:00 +19°C° 0 mm 2 mps 742 mmHg 76%
20:00 +17°C° 0 mm 2 mps 742 mmHg 80%
21:00 +16°C° 0 mm 2 mps 742 mmHg 82%
22:00 +15°C° 0 mm 2 mps 742 mmHg 83%
23:00 +14°C° 0 mm 2 mps 743 mmHg 85%

17 Julio, Viernes

Tiempo Temperatura Precipitaciones Viento Presión Humedad
00:00 +14°C° 0 mm 1 mps 743 mmHg 87%
01:00 +13°C° 0 mm 1 mps 742 mmHg 89%
02:00 +13°C° 0 mm 1 mps 742 mmHg 91%
03:00 +13°C° 0 mm 1 mps 743 mmHg 91%
04:00 +13°C° 0 mm 1 mps 743 mmHg 91%
05:00 +13°C° 0 mm 1 mps 743 mmHg 91%
06:00 +15°C° 0 mm 1 mps 743 mmHg 85%
07:00 +18°C° 0 mm 1 mps 743 mmHg 80%
08:00 +19°C° 0 mm 2 mps 743 mmHg 74%
09:00 +20°C° 0 mm 2 mps 744 mmHg 70%
10:00 +21°C° 0 mm 2 mps 744 mmHg 65%
11:00 +23°C° 0 mm 2 mps 744 mmHg 60%
12:00 +23°C° 0 mm 2 mps 744 mmHg 60%
13:00 +24°C° 0 mm 2 mps 744 mmHg 59%
14:00 +24°C° 0 mm 2 mps 744 mmHg 58%
15:00 +24°C° 0 mm 2 mps 744 mmHg 61%
16:00 +24°C° 0 mm 2 mps 744 mmHg 64%
17:00 +24°C° 0 mm 2 mps 744 mmHg 66%
18:00 +21°C° 0 mm 2 mps 744 mmHg 71%
19:00 +19°C° 0 mm 2 mps 744 mmHg 76%
20:00 +18°C° 0 mm 1 mps 744 mmHg 80%
21:00 +16°C° 0 mm 1 mps 744 mmHg 83%
22:00 +15°C° 0 mm 1 mps 744 mmHg 85%
23:00 +14°C° 0 mm 1 mps 745 mmHg 87%

18 Julio, Sábado

Tiempo Temperatura Precipitaciones Viento Presión Humedad
00:00 +14°C° 0 mm 1 mps 745 mmHg 88%
01:00 +14°C° 0 mm 1 mps 745 mmHg 88%
02:00 +13°C° 0 mm 1 mps 745 mmHg 89%
03:00 +13°C° 0 mm 1 mps 745 mmHg 89%
04:00 +13°C° 0 mm 1 mps 745 mmHg 89%
05:00 +13°C° 0 mm 2 mps 745 mmHg 89%
06:00 +15°C° 0 mm 2 mps 745 mmHg 83%
07:00 +17°C° 0 mm 2 mps 746 mmHg 78%
08:00 +18°C° 0 mm 2 mps 746 mmHg 72%
09:00 +19°C° 0 mm 2 mps 746 mmHg 67%
10:00 +21°C° 0 mm 2 mps 746 mmHg 62%
11:00 +23°C° 0 mm 2 mps 746 mmHg 57%
12:00 +23°C° 0 mm 2 mps 746 mmHg 55%
13:00 +24°C° 0 mm 2 mps 746 mmHg 54%
14:00 +24°C° 0 mm 3 mps 746 mmHg 52%
15:00 +24°C° 0 mm 3 mps 746 mmHg 56%
16:00 +22°C° 0 mm 3 mps 746 mmHg 59%
17:00 +22°C° 0 mm 3 mps 746 mmHg 62%
18:00 +20°C° 0 mm 3 mps 746 mmHg 67%
19:00 +18°C° 0 mm 2 mps 746 mmHg 72%
20:00 +16°C° 0 mm 2 mps 747 mmHg 76%
21:00 +15°C° 0 mm 2 mps 747 mmHg 79%
22:00 +14°C° 0 mm 2 mps 747 mmHg 81%
23:00 +13°C° 0 mm 2 mps 747 mmHg 83%
Mostrar más